Погода в Ичалках

Россия / Республика Мордовия     54˚41′11″N   45˚16′14″E
темп.,
°C
ветер,
м/с
пор.,
м/с
влажн.,
%
обл.,
%
осадки,
мм/ч
давл.,
гПа
погр.,
м
15 января, пт
пт1500:00−12˚юв3795100 0.1 1010201
03:00−12˚ююв249698 0.1 1010101
06:00−14˚ю239687 0.1 101022
09:00−15˚ю239679 0.1 101128
12:00−11˚ю129499 0.0 1011135
15:00−11˚св1196100 0.0 101121
18:00−12˚св2296100 0.1 101060
21:00−12˚св51094100 0.2 1007279
16 января, сб
сб1600:00−11˚св2796100 0.9 1004363
03:00−11˚ссв51095100 5.7 1000450
06:00−11˚ссв4895100 3.8 997443
09:00−12˚с3596100 5.6 997313
12:00−11˚сз3493100 0.4 997338
15:00−12˚з3694100 0.7 998435
18:00−14˚з489599 0.1 999278
21:00−16˚з489692 0.2 1002187
17 января, вс
вс1700:00−17˚зюз499679 0.0 1003204
03:00−17˚з499586 0.1 1005263
06:00−18˚зюз499698 0.0 1007277
09:00−18˚зюз379598 0.1 1009241
12:00−17˚з3694100 0.0 1012337
15:00−17˚з2495100 0.0 1013146
18:00−22˚сз129890 0.0 101620
21:00−24˚сз129795 0.0 101720
18 января, пн
пн1800:00−25˚ссз119698 0.0 101819
03:00−27˚ссз119879 0.0 101919
06:00−28˚с119930 0.0 101919
09:00−27˚ссв129765 0.0 102019
12:00−22˚ююз0093100 0.0 1020169
15:00−22˚св1196100 0.0 101921
18:00−24˚св1296100 0.0 102020
21:00−22˚св1295100 0.0 1019130
19 января, вт
вт1900:00−21˚св1396100 0.0 1019147
03:00−21˚св1296100 0.0 1019165
06:00−20˚св2496100 0.2 1019214
09:00−20˚св1398100 0.4 1019205
12:00−18˚св2394100 0.4 1019291
15:00−18˚ссв2496100 0.5 1019251
18:00−19˚ссв2498100 0.3 1020191
21:00−19˚с2595100 0.3 1020191